#timestamp,LO_Frequency,Hit 
1500346815.4,286047010.5,N
1500346835.3,286047008.3,N
1500346855.1,286047010.2,N
1500346856.0,286047010.2,N
1500346875.8,286047010.2,N
1500346895.7,286047009.5,N
1500346915.5,286047010.0,N
1500346935.3,286047011.4,N
1500346955.2,286047009.5,N
1500346975.0,286047007.8,N
1500346975.9,286047007.8,N
1500346995.8,286047011.8,N
1500347015.6,286047012.4,N
1500347035.4,286047007.8,N
1500347055.3,286047007.7,N
1500347075.1,286047007.8,N
1500347095.8,286047010.7,N
1500347115.7,286047010.4,N
1500347135.5,286047010.1,N
1500347155.4,286047012.2,N
1500347175.2,286047009.9,N
1500347195.0,286047010.5,N
1500347195.9,286047010.5,N
1500347215.8,286047009.5,N
1500347235.6,286047009.3,N
1500347255.4,286047009.6,N
1500347275.3,286047012.2,N
1500347295.1,286047010.6,N
1500347315.9,286047009.8,N
1500347335.7,286047007.7,N
1500347355.5,286047010.5,N
1500347375.4,286047011.9,N
1500347395.2,286047011.7,N
1500347415.0,286047012.4,N
1500347415.9,286047012.4,N
1500347435.8,286047011.8,N
1500347455.6,286047009.7,N
1500347475.5,286047009.5,N
1500347495.3,286047012.4,N
1500347515.1,286047010.3,N
1500347535.9,286047011.9,N
1500347555.7,286047010.4,N
1500347575.5,286047010.1,N
1500347595.4,286047009.5,N
1500347615.2,286047008.1,N
1500347635.1,286047010.5,N
1500347636.0,286047010.5,N
1500347655.8,286047007.7,N
1500347675.6,286047007.8,N
1500347695.5,286047008.0,N
1500347715.3,286047008.3,N
1500347735.1,286047010.2,N
1500347755.9,286047010.7,N
1500347775.7,286047010.6,N
1500347795.6,286047009.4,N
1500347815.4,286047009.9,N
1500347835.2,286047010.6,N
1500347855.1,286047009.9,N
1500347856.0,286047009.9,N
1500347875.8,286047012.4,N
1500347895.6,286047009.5,N
1500347915.5,286047011.8,N
1500347935.3,286047011.2,N
1500347955.2,286047013.5,N
1500347975.9,286047011.5,N
1500347995.7,286047011.1,N
1500348015.6,286047009.4,N
1500348035.4,286047011.1,N
1500348055.3,286047009.7,N
1500348075.1,286047009.6,N
1500348076.0,286047009.6,N
1500348095.8,286047012.1,N
1500348115.7,286047009.4,N
1500348135.5,286047011.0,N
1500348155.3,286047013.6,N
1500348175.2,286047013.0,N
1500348195.0,286047013.7,N
1500348195.9,286047013.7,N
1500348215.8,286047011.8,N
1500348235.6,286047011.6,N
1500348255.4,286047011.7,N
1500348275.3,286047012.2,N
1500348295.1,286047011.9,N
1500348315.9,286047011.6,N
1500348335.7,286047012.0,N
1500348355.5,286047011.6,N
1500348375.4,286047010.9,N
1500348395.2,286047011.3,N
1500348415.0,286047011.8,N
1500348415.9,286047011.8,N
1500348435.8,286047011.1,N
1500348455.6,286047013.9,N
1500348475.5,286047013.3,N
1500348495.3,286047013.8,N
1500348515.1,286047013.2,N
1500348535.9,286047013.0,N
1500348555.7,286047015.6,N
1500348575.5,286047012.5,N
1500348595.4,286047015.0,N
1500348615.2,286047015.1,N
1500348635.1,286047015.4,N
1500348636.0,286047015.4,N
1500348655.8,286047014.8,N
1500348675.6,286047014.9,N
1500348695.5,286047015.1,N
1500348715.3,286047015.6,N
1500348735.1,286047012.6,N
1500348755.9,286047015.0,N
1500348775.7,286047017.0,N
1500348795.6,286047017.2,N
1500348815.4,286047016.4,N
1500348835.2,286047018.8,N
1500348855.1,286047016.4,N
1500348856.0,286047016.4,N
1500348875.8,286047014.2,N
1500348895.6,286047012.5,N
1500348915.5,286047015.5,N
1500348935.3,286047015.2,N
1500348955.2,286047013.0,N
1500348975.9,286047014.8,N
1500348995.7,286047015.0,N
1500349015.6,286047018.3,N
1500349035.4,286047015.7,N
1500349055.2,286047017.0,N
1500349075.1,286047015.6,N
1500349076.0,286047015.6,N
1500349095.8,286047015.6,N
1500349115.7,286047014.8,N
1500349135.5,286047015.4,N
1500349155.3,286047015.3,N
1500349175.2,286047016.8,N
1500349195.0,286047016.9,Y
1500349195.9,286047016.9,Y
1500349215.8,286047002.8,N
1500349235.6,286047002.3,N
1500349255.4,286047001.1,N
1500349275.3,286047000.7,N
1500349295.1,286047000.9,N
1500349315.8,286047000.6,N
1500349335.7,286047000.4,N
1500349355.5,286047001.0,N
1500349375.4,286046999.8,N
1500349395.2,286047000.7,N
1500349415.0,286046999.7,N
1500349415.9,286046999.7,N
1500349435.8,286047000.9,N
1500349455.6,286047001.1,N
1500349475.4,286047000.1,N
1500349495.3,286047001.0,N
1500349515.1,286047001.1,N
1500349535.9,286046999.4,N
1500349555.7,286046998.9,N
1500349575.5,286046997.0,N
1500349595.4,286046999.4,N
1500349615.2,286046999.0,N
1500349635.0,286046999.5,N
1500349636.0,286046999.5,N
1500349655.8,286046999.1,N
1500349675.6,286046999.2,N
1500349695.5,286046996.7,N
1500349715.3,286046996.5,N
1500349735.1,286046999.0,N
1500349755.9,286046999.2,N
1500349775.7,286046996.7,N
1500349795.6,286046996.6,N
1500349815.4,286046999.2,N
1500349835.2,286046998.8,N
1500349855.1,286046998.1,N
1500349856.0,286046998.1,N
1500349875.8,286047001.2,N
1500349895.6,286046998.6,N
1500349915.5,286047001.2,N
1500349935.3,286046998.6,N
1500349955.1,286046999.4,N
1500349975.9,286046998.4,N
1500349995.7,286046998.7,N
1500350015.6,286047001.5,N
1500350035.4,286047002.7,N
1500350055.2,286046998.3,N
1500350075.1,286046998.2,N
1500350076.0,286046998.2,N
1500350095.8,286046998.8,N
1500350115.6,286046998.2,N
1500350135.5,286046999.3,N
1500350155.3,286046998.3,N
1500350175.2,286046998.6,N
1500350195.9,286046998.8,N
1500350215.7,286046999.3,N
1500350235.6,286046998.1,N
1500350255.4,286046998.8,N
1500350275.2,286046998.9,N
1500350295.1,286047001.1,N
1500350296.0,286047001.1,N
1500350315.8,286046998.5,N
1500350335.7,286047000.6,N
1500350355.5,286047000.4,N
1500350375.3,286047000.9,N
1500350395.2,286047001.2,N
